Погода в Широком

Россия / Магаданская область     63°04′50″N   148°02′30″E
темп.,
°C
ветер,
м/с
пор.,
м/с
влажн.,
%
обл.,
%
осадки,
мм/ч
давл.,
гПа
погр.,
м
14 мая, пт
пт1423:00+1ю3599100 1.6 1006275
02:00+1ююз2299100 1.8 1006153
05:00+1юз1299100 3.6 1007110
08:00+1з128199 0.1 1008520
11:00+1сз677598 1.4 1010885
14:00+2зсз874191 0.3 10101834
17:00+2ссз874371 0.5 10111688
20:00−1в33666 0.2 1014572
15 мая, сб
сб1523:00−2вюв11765 0.3 101743
02:00−3вюв11825 0.0 101826
05:00−4юв11835 0.0 101846
08:00−2ю11685 0.0 1018384
11:00+1ююз22485 0.0 1016930
14:00+4ююз33345 0.0 10141613
17:00+6ю552946 0.0 10121926
20:00+6ююз663197 0.0 10111453
16 мая, вс
вс1623:00+3ююв225226 0.0 101227
02:00+1юв225821 0.0 101312
05:000ю337520 0.0 101342
08:00+2ю457216 0.0 1012672
11:00+5ю555289 0.0 10101412
14:00+6ю5548100 0.1 10071593
17:00+6ю4550100 0.1 10061372
20:00+6ю4549100 0.1 10061128
17 мая, пн
пн1723:00+4ююв2260100 0.1 100640
02:00+3юв2266100 0.0 100515
05:00+2ююв3568100 0.0 1006407
08:00+2юв2367100 0.0 1005626
11:00+4ю2352100 0.0 10031056
14:00+6ююв233996 0.0 10011757
17:00+8в3335100 0.1 9991859
20:00+6юв4444100 0.1 10001528
18 мая, вт
вт1823:00+4вюв2254100 0.1 100044
02:00+2в116399 0.0 100010
05:00+1вюв116890 0.0 100010
08:00+3вюв2362100 0.0 1000606
11:00+4вюв445187 0.0 10001227
14:00+6вюв5544100 0.1 9981536
17:00+7вюв6641100 0.1 9981781
20:00+5в6649100 0.1 9981337